Location: Newark
(54.6833°N, 25.2833°E)
Time: 10:54:17
(UTC+00:00)

Tiros 1 despin weight - All Passes

Search period start: 21 January 2021 00:00
Search period end: 31 January 2021 00:00
Orbit: 594 x 641 km, 48.2° (Epoch: 20 January)

Date Brightness Start Highest point End Pass type
(mag) Time Alt. Az. Time Alt. Az. Time Alt. Az.
21 Jan - 14:31:37 10° SSW 14:35:11 23° SSE 14:38:44 10° ESE daylight
21 Jan - 16:11:56 10° WSW 16:16:02 36° S 16:20:05 10° ESE visible
21 Jan - 17:53:06 10° WSW 17:56:57 29° SSW 18:00:45 10° SE visible
21 Jan - 19:35:37 10° WSW 19:37:29 12° SW 19:39:21 10° S visible
22 Jan - 13:08:26 10° S 13:10:41 14° SE 13:12:56 10° ESE daylight
22 Jan - 14:47:22 10° SW 14:51:17 30° SSE 14:55:10 10° ESE daylight
22 Jan - 16:28:07 10° WSW 16:32:13 35° S 16:36:16 10° ESE visible
22 Jan - 18:09:34 10° WSW 18:13:01 22° SSW 18:16:27 10° SSE visible
23 Jan - 13:23:23 10° SSW 13:26:40 20° SSE 13:29:54 10° ESE daylight
23 Jan - 15:03:21 10° WSW 15:07:26 34° S 15:11:28 10° ESE daylight
23 Jan - 16:44:23 10° WSW 16:48:22 32° SSW 16:52:18 10° SE visible
23 Jan - 18:26:19 10° WSW 18:29:02 16° SSW 18:31:43 10° S visible
24 Jan - 12:01:23 10° SSE 12:02:14 10° SE 12:03:05 10° SE daylight
24 Jan - 13:38:57 10° SW 13:42:43 26° SSE 13:46:27 10° ESE daylight
24 Jan - 15:19:28 10° WSW 15:23:36 36° S 15:27:41 10° ESE visible
24 Jan - 17:00:46 10° WSW 17:04:29 26° SSW 17:08:10 10° SE visible
24 Jan - 18:44:23 10° SW 18:44:56 10° SW 18:45:30 10° SSW visible
25 Jan - 12:15:20 10° S 12:18:09 16° SSE 12:20:57 10° ESE daylight
25 Jan - 13:54:48 10° SW 13:58:50 32° SSE 14:02:49 10° ESE daylight
25 Jan - 15:35:42 10° WSW 15:39:47 34° S 15:43:49 10° ESE visible
25 Jan - 17:17:18 10° WSW 17:20:33 20° SSW 17:23:45 10° SSE visible
26 Jan - 12:30:36 10° SSW 12:34:10 23° SSE 12:37:41 10° ESE daylight
26 Jan - 14:10:51 10° WSW 14:14:59 36° S 14:19:05 10° ESE daylight
26 Jan - 15:52:00 10° WSW 15:55:55 30° SSW 15:59:48 10° SE visible
26 Jan - 17:34:16 10° WSW 17:36:30 14° SW 17:38:42 10° S visible
27 Jan - 11:07:37 10° S 11:09:41 13° SE 11:11:43 10° ESE daylight
27 Jan - 12:46:19 10° SW 12:50:14 29° SSE 12:54:08 10° ESE daylight
27 Jan - 14:27:01 10° WSW 14:31:10 36° S 14:35:16 10° ESE daylight
27 Jan - 16:08:26 10° WSW 16:12:01 24° SSW 16:15:33 10° SSE visible
28 Jan - 11:22:25 10° SSW 11:25:38 19° SSE 11:28:49 10° ESE daylight
28 Jan - 13:02:16 10° SW 13:06:23 34° S 13:10:27 10° ESE daylight
28 Jan - 14:43:16 10° WSW 14:47:20 33° S 14:51:21 10° SE daylight
28 Jan - 16:25:05 10° WSW 16:28:01 17° SSW 16:30:56 10° S visible
29 Jan - 11:37:54 10° SW 11:41:40 25° SSE 11:45:24 10° ESE daylight
29 Jan - 13:18:22 10° WSW 13:22:33 36° S 13:26:41 10° ESE daylight
29 Jan - 14:59:37 10° WSW 15:03:27 27° SSW 15:07:14 10° SE daylight
29 Jan - 16:42:31 10° WSW 16:43:56 11° SW 16:45:22 10° SSW visible
30 Jan - 10:14:25 10° S 10:17:08 15° SSE 10:19:48 10° ESE daylight
30 Jan - 11:53:43 10° SW 11:57:46 31° SSE 12:01:47 10° ESE daylight
30 Jan - 13:34:34 10° WSW 13:38:44 35° S 13:42:50 10° ESE daylight
30 Jan - 15:16:07 10° WSW 15:19:31 21° SSW 15:22:53 10° SSE daylight
